SENTINEL-2B

Last updated on Wed Oct 15 2025 00:02:30 GMT+0000 (Coordinated Universal Time)

1 42063U 17013A 25287.26344752 .00000214 00000+0 98228-4 0 9993 2 42063 98.5685 0.5704 0000996 92.2891 267.8406 14.30814304449478
UTC large
Height (km)
Speed (km/s)
/
Latitude / Longitude
Inclination (degrees)
Orbital Period (minutes)
Azimuth
Elevation
Range (km)
Doppler Factor

Next 0 passes for location: London (51.5072 / 0.1276)

Sorry there are no passes over London.